| time (UTC) | temp C | wind direction | speed KPH | gust KPH | rain 1hr cm | rain 24hr cm | rain mn cm | humidity % | barometer mb |
| 20260906162240 | 22 | 107 | 0.0 | 4.8 | 0.00 | 0.00 | 0.00 | 85 | 1033.0 |
| 20260906161743 | 22 | 121 | 0.0 | 8.0 | 0.00 | 0.00 | 0.00 | 86 | 1033.0 |
| 20260906161501 | 22 | 140 | 0.0 | 8.0 | 0.00 | 0.00 | 0.00 | 86 | 1033.1 |
| 20260906161004 | 22 | 121 | 0.0 | 0.0 | 0.00 | 0.00 | 0.00 | 86 | 1033.1 |
| 20260906160207 | 22 | 131 | 0.0 | 0.0 | 0.00 | 0.00 | 0.00 | 87 | 1033.1 |
| 20260906155710 | 22 | 117 | 0.0 | 0.0 | 0.00 | 0.00 | 0.00 | 88 | 1033.1 |
| 20260906155209 | 22 | 233 | 0.0 | 0.0 | 0.00 | 0.00 | 0.00 | 88 | 1033.0 |
| 20260906154650 | 22 | 106 | 0.0 | 6.4 | 0.00 | 0.00 | 0.00 | 89 | 1032.9 |
| 20260906154149 | 22 | 123 | 0.0 | 6.4 | 0.00 | 0.00 | 0.00 | 88 | 1032.9 |
| 20260906153623 | 22 | 132 | 0.0 | 6.4 | 0.00 | 0.00 | 0.00 | 89 | 1032.9 |
| 20260906153326 | 22 | 130 | 0.0 | 6.4 | 0.00 | 0.00 | 0.00 | 89 | 1032.9 |
| 20260906152552 | 21 | 134 | 0.0 | 8.0 | 0.00 | 0.00 | 0.00 | 90 | 1033.0 |
| 20260906152032 | 21 | 94 | 0.0 | 8.0 | 0.00 | 0.00 | 0.00 | 90 | 1033.3 |
| 20260906151438 | 21 | 103 | 0.0 | 6.4 | 0.00 | 0.00 | 0.00 | 90 | 1033.3 |
| 20260906150937 | 21 | 98 | 0.0 | 4.8 | 0.00 | 0.00 | 0.00 | 91 | 1033.3 |
| 20260906150431 | 21 | 122 | 0.0 | 4.8 | 0.00 | 0.00 | 0.00 | 92 | 1033.3 |
| 20260906145931 | 21 | 107 | 0.0 | 4.8 | 0.00 | 0.00 | 0.00 | 92 | 1033.1 |
| 20260906145700 | 21 | 138 | 0.0 | 4.8 | 0.00 | 0.00 | 0.00 | 92 | 1033.2 |
| 20260906144932 | 21 | 113 | 0.0 | 4.8 | 0.00 | 0.00 | 0.00 | 92 | 1033.2 |
| 20260906144353 | 21 | 234 | 0.0 | 4.8 | 0.00 | 0.00 | 0.00 | 92 | 1033.0 |
| 20260906143824 | 21 | 110 | 0.0 | 4.8 | 0.00 | 0.00 | 0.00 | 92 | 1033.0 |
| 20260906143322 | 21 | 94 | 0.0 | 4.8 | 0.00 | 0.00 | 0.00 | 93 | 1033.1 |
| 20260906142755 | 21 | 120 | 0.0 | 4.8 | 0.00 | 0.00 | 0.00 | 92 | 1033.1 |
| 20260906142252 | 21 | 138 | 0.0 | 1.6 | 0.00 | 0.00 | 0.00 | 93 | 1033.0 |
| 20260906141753 | 21 | 140 | 0.0 | 3.2 | 0.00 | 0.00 | 0.00 | 93 | 1033.0 |
| 20260906141236 | 21 | 121 | 0.0 | 3.2 | 0.00 | 0.00 | 0.00 | 93 | 1033.0 |
| 20260906140735 | 21 | 109 | 0.0 | 1.6 | 0.00 | 0.00 | 0.00 | 94 | 1032.9 |
| 20260906140223 | 21 | 114 | 0.0 | 1.6 | 0.00 | 0.00 | 0.00 | 94 | 1032.9 |
| 20260906135727 | 21 | 168 | 0.0 | 4.8 | 0.00 | 0.00 | 0.00 | 94 | 1033.0 |
| 20260906135201 | 21 | 79 | 0.0 | 4.8 | 0.00 | 0.00 | 0.00 | 94 | 1033.0 |
| 20260906134644 | 21 | 104 | 0.0 | 3.2 | 0.00 | 0.00 | 0.00 | 94 | 1032.9 |
| 20260906134101 | 21 | 101 | 0.0 | 0.0 | 0.00 | 0.00 | 0.00 | 94 | 1032.8 |
| 20260906133829 | 21 | 132 | 0.0 | 0.0 | 0.00 | 0.00 | 0.00 | 94 | 1032.7 |
| 20260906133101 | 20 | 126 | 0.0 | 0.0 | 0.00 | 0.00 | 0.00 | 94 | 1032.7 |
| 20260906132542 | 20 | 109 | 0.0 | 0.0 | 0.00 | 0.00 | 0.00 | 94 | 1032.6 |
| 20260906132040 | 20 | 99 | 0.0 | 0.0 | 0.00 | 0.00 | 0.00 | 94 | 1032.6 |
| 20260906131813 | 20 | 98 | 0.0 | 0.0 | 0.00 | 0.00 | 0.00 | 95 | 1032.6 |
| 20260906131006 | 20 | 92 | 0.0 | 0.0 | 0.00 | 0.00 | 0.00 | 95 | 1032.4 |
| 20260906130521 | 20 | 107 | 0.0 | 0.0 | 0.00 | 0.00 | 0.00 | 95 | 1032.3 |
| 20260906130228 | 20 | 109 | 0.0 | 0.0 | 0.00 | 0.00 | 0.00 | 95 | 1032.3 |
| 20260906125502 | 20 | 107 | 0.0 | 0.0 | 0.00 | 0.00 | 0.00 | 95 | 1032.3 |
| 20260906125223 | 20 | 99 | 0.0 | 0.0 | 0.00 | 0.00 | 0.00 | 95 | 1032.3 |
| 20260906124725 | 20 | 101 | 0.0 | 0.0 | 0.00 | 0.00 | 0.00 | 95 | 1032.3 |
| 20260906123955 | 20 | 105 | 0.0 | 1.6 | 0.00 | 0.00 | 0.00 | 95 | 1032.3 |
| 20260906123440 | 20 | 96 | 0.0 | 1.6 | 0.00 | 0.00 | 0.00 | 95 | 1032.3 |
| 20260906123208 | 20 | 107 | 0.0 | 0.0 | 0.00 | 0.00 | 0.00 | 95 | 1032.2 |
| 20260906122436 | 20 | 95 | 0.0 | 0.0 | 0.00 | 0.00 | 0.00 | 95 | 1032.2 |
| 20260906122206 | 20 | 106 | 0.0 | 0.0 | 0.00 | 0.00 | 0.00 | 95 | 1032.2 |
| 20260906121639 | 20 | 103 | 0.0 | 0.0 | 0.00 | 0.00 | 0.00 | 95 | 1032.2 |
| 20260906120843 | 20 | 115 | 0.0 | 0.0 | 0.00 | 0.00 | 0.00 | 95 | 1032.2 |
| 20260906120331 | 20 | 108 | 0.0 | 0.0 | 0.00 | 0.00 | 0.00 | 95 | 1032.2 |
| 20260906115326 | 20 | 113 | 0.0 | 0.0 | 0.00 | 0.00 | 0.00 | 95 | 1032.1 |
| 20260906114827 | 20 | 113 | 0.0 | 0.0 | 0.00 | 0.00 | 0.00 | 95 | 1032.0 |
| 20260906114314 | 20 | 113 | 0.0 | 0.0 | 0.00 | 0.00 | 0.00 | 95 | 1032.0 |
| 20260906113812 | 20 | 113 | 0.0 | 0.0 | 0.00 | 0.00 | 0.00 | 95 | 1032.0 |
| 20260906113315 | 20 | 111 | 0.0 | 0.0 | 0.00 | 0.00 | 0.00 | 95 | 1031.8 |
| 20260906112753 | 20 | 111 | 0.0 | 0.0 | 0.00 | 0.00 | 0.00 | 95 | 1031.8 |
| 20260906112235 | 20 | 111 | 0.0 | 0.0 | 0.00 | 0.00 | 0.00 | 94 | 1031.8 |
| 20260906111733 | 20 | 111 | 0.0 | 0.0 | 0.00 | 0.00 | 0.00 | 94 | 1031.7 |
| 20260906111232 | 20 | 112 | 0.0 | 0.0 | 0.00 | 0.00 | 0.00 | 94 | 1031.7 |
| 20260906110732 | 20 | 113 | 0.0 | 0.0 | 0.00 | 0.00 | 0.00 | 94 | 1031.8 |
| 20260906110217 | 20 | 115 | 0.0 | 0.0 | 0.00 | 0.00 | 0.00 | 94 | 1031.8 |
| 20260906105654 | 20 | 115 | 0.0 | 0.0 | 0.00 | 0.00 | 0.00 | 94 | 1031.6 |
| 20260906105155 | 20 | 113 | 0.0 | 0.0 | 0.00 | 0.00 | 0.00 | 94 | 1031.6 |
| 20260906104630 | 20 | 113 | 0.0 | 0.0 | 0.00 | 0.00 | 0.00 | 93 | 1031.6 |
| 20260906104129 | 20 | 113 | 0.0 | 0.0 | 0.00 | 0.00 | 0.00 | 93 | 1031.5 |
| 20260906103628 | 20 | 113 | 0.0 | 0.0 | 0.00 | 0.00 | 0.00 | 93 | 1031.6 |
| 20260906103102 | 20 | 113 | 0.0 | 0.0 | 0.00 | 0.00 | 0.00 | 93 | 1031.7 |
| 20260906102543 | 20 | 113 | 0.0 | 0.0 | 0.00 | 0.00 | 0.00 | 93 | 1031.6 |
| 20260906102033 | 20 | 114 | 0.0 | 0.0 | 0.00 | 0.00 | 0.00 | 93 | 1031.6 |
| 20260906101508 | 20 | 130 | 0.0 | 0.0 | 0.00 | 0.00 | 0.00 | 93 | 1031.5 |
| 20260906101007 | 20 | 131 | 0.0 | 0.0 | 0.00 | 0.00 | 0.00 | 93 | 1031.4 |
| 20260906100456 | 20 | 109 | 0.0 | 0.0 | 0.00 | 0.00 | 0.00 | 93 | 1031.4 |
| 20260906095951 | 20 | 111 | 0.0 | 0.0 | 0.00 | 0.00 | 0.00 | 92 | 1031.4 |
| 20260906095948 | 20 | 109 | 0.0 | 0.0 | 0.00 | 0.00 | 0.00 | 93 | 1031.5 |
| 20260906094921 | 20 | 111 | 0.0 | 0.0 | 0.00 | 0.00 | 0.00 | 92 | 1031.3 |
| 20260906094354 | 20 | 111 | 0.0 | 0.0 | 0.00 | 0.00 | 0.00 | 92 | 1031.2 |
| 20260906093833 | 20 | 111 | 0.0 | 0.0 | 0.00 | 0.00 | 0.00 | 92 | 1031.2 |
| 20260906093336 | 21 | 103 | 0.0 | 0.0 | 0.00 | 0.00 | 0.00 | 92 | 1031.2 |
| 20260906092809 | 21 | 91 | 0.0 | 0.0 | 0.00 | 0.00 | 0.00 | 92 | 1031.1 |
| 20260906092244 | 21 | 91 | 0.0 | 0.0 | 0.00 | 0.00 | 0.00 | 92 | 1031.0 |
| 20260906091716 | 21 | 91 | 0.0 | 0.0 | 0.00 | 0.00 | 0.00 | 91 | 1030.9 |
| 20260906091213 | 21 | 91 | 0.0 | 0.0 | 0.00 | 0.00 | 0.00 | 91 | 1030.9 |
| 20260906090713 | 21 | 90 | 0.0 | 0.0 | 0.00 | 0.00 | 0.00 | 91 | 1030.9 |
| 20260906090151 | 21 | 90 | 0.0 | 0.0 | 0.00 | 0.00 | 0.00 | 91 | 1030.9 |
| 20260906085650 | 21 | 90 | 0.0 | 0.0 | 0.00 | 0.00 | 0.00 | 91 | 1030.9 |
| 20260906085626 | 21 | 96 | 0.0 | 0.0 | 0.00 | 0.00 | 0.00 | 91 | 1030.9 |
| 20260906084555 | 21 | 96 | 0.0 | 0.0 | 0.00 | 0.00 | 0.00 | 91 | 1031.0 |
| 20260906084051 | 21 | 104 | 0.0 | 0.0 | 0.00 | 0.00 | 0.00 | 91 | 1030.8 |
| 20260906083526 | 21 | 116 | 0.0 | 0.0 | 0.00 | 0.00 | 0.00 | 90 | 1030.8 |
| 20260906083018 | 21 | 168 | 0.0 | 0.0 | 0.00 | 0.00 | 0.00 | 90 | 1030.8 |
| 20260906082722 | 21 | 113 | 0.0 | 1.6 | 0.00 | 0.00 | 0.00 | 90 | 1030.6 |
| 20260906081923 | 21 | 113 | 0.0 | 1.6 | 0.00 | 0.00 | 0.00 | 90 | 1030.6 |
| 20260906081419 | 21 | 105 | 0.0 | 0.0 | 0.00 | 0.00 | 0.00 | 90 | 1030.6 |
| 20260906080856 | 21 | 108 | 0.0 | 0.0 | 0.00 | 0.00 | 0.00 | 90 | 1030.6 |
| 20260906080335 | 21 | 109 | 0.0 | 0.0 | 0.00 | 0.00 | 0.00 | 89 | 1030.6 |
| 20260906075753 | 21 | 109 | 0.0 | 0.0 | 0.00 | 0.00 | 0.00 | 89 | 1030.7 |
| 20260906075253 | 21 | 104 | 0.0 | 3.2 | 0.00 | 0.00 | 0.00 | 89 | 1030.7 |
| 20260906074726 | 21 | 109 | 0.0 | 3.2 | 0.00 | 0.00 | 0.00 | 89 | 1030.7 |
| 20260906074228 | 21 | 109 | 0.0 | 3.2 | 0.00 | 0.00 | 0.00 | 89 | 1030.7 |
| 20260906073935 | 22 | 99 | 0.0 | 1.6 | 0.00 | 0.00 | 0.00 | 89 | 1030.7 |
| 20260906073203 | 22 | 106 | 0.0 | 1.6 | 0.00 | 0.00 | 0.00 | 89 | 1030.8 |
| 20260906072705 | 22 | 98 | 0.0 | 0.0 | 0.00 | 0.00 | 0.00 | 88 | 1030.8 |
| 20260906072141 | 22 | 98 | 0.0 | 0.0 | 0.00 | 0.00 | 0.00 | 88 | 1030.9 |
| 20260906071611 | 22 | 82 | 0.0 | 0.0 | 0.00 | 0.00 | 0.00 | 88 | 1030.9 |
| 20260906071110 | 22 | 134 | 0.0 | 0.0 | 0.00 | 0.00 | 0.00 | 88 | 1030.9 |
| 20260906070605 | 22 | 100 | 0.0 | 0.0 | 0.00 | 0.00 | 0.00 | 88 | 1031.0 |
| 20260906065543 | 22 | 91 | 0.0 | 0.0 | 0.00 | 0.00 | 0.00 | 88 | 1031.2 |
| 20260906065041 | 22 | 103 | 0.0 | 0.0 | 0.00 | 0.00 | 0.00 | 88 | 1031.3 |
| 20260906064748 | 22 | 104 | 0.0 | 0.0 | 0.00 | 0.00 | 0.00 | 88 | 1031.3 |
| 20260906063947 | 22 | 111 | 0.0 | 0.0 | 0.00 | 0.00 | 0.00 | 88 | 1031.3 |
| 20260906063446 | 22 | 111 | 0.0 | 0.0 | 0.00 | 0.00 | 0.00 | 88 | 1031.2 |
| 20260906062925 | 22 | 109 | 0.0 | 0.0 | 0.00 | 0.00 | 0.00 | 88 | 1031.2 |
| 20260906062344 | 22 | 104 | 0.0 | 0.0 | 0.00 | 0.00 | 0.00 | 88 | 1031.1 |
| 20260906061841 | 22 | 100 | 0.0 | 0.0 | 0.00 | 0.00 | 0.00 | 88 | 1031.2 |
| 20260906061316 | 22 | 100 | 0.0 | 0.0 | 0.00 | 0.00 | 0.00 | 88 | 1031.2 |
| 20260906060811 | 22 | 88 | 0.0 | 0.0 | 0.00 | 0.00 | 0.00 | 88 | 1031.3 |
| 20260906060310 | 22 | 88 | 0.0 | 0.0 | 0.00 | 0.00 | 0.00 | 88 | 1031.3 |
| 20260906055753 | 22 | 96 | 0.0 | 0.0 | 0.00 | 0.00 | 0.00 | 89 | 1031.2 |
| 20260906055255 | 22 | 95 | 0.0 | 0.0 | 0.00 | 0.00 | 0.00 | 88 | 1031.2 |
| 20260906054730 | 22 | 91 | 0.0 | 0.0 | 0.00 | 0.00 | 0.00 | 88 | 1031.2 |
| 20260906054502 | 22 | 92 | 0.0 | 0.0 | 0.00 | 0.00 | 0.00 | 88 | 1031.2 |
| 20260906053943 | 22 | 80 | 0.0 | 0.0 | 0.00 | 0.00 | 0.00 | 88 | 1031.2 |
| 20260906053210 | 22 | 74 | 0.0 | 0.0 | 0.00 | 0.00 | 0.00 | 88 | 1031.2 |
| 20260906052642 | 22 | 71 | 0.0 | 0.0 | 0.00 | 0.00 | 0.00 | 87 | 1031.2 |
| 20260906052131 | 22 | 69 | 0.0 | 0.0 | 0.00 | 0.00 | 0.00 | 87 | 1031.2 |
| 20260906051628 | 22 | 74 | 0.0 | 0.0 | 0.00 | 0.00 | 0.00 | 87 | 1031.2 |
| 20260906051104 | 22 | 66 | 0.0 | 0.0 | 0.00 | 0.00 | 0.00 | 87 | 1031.2 |
| 20260906050538 | 22 | 76 | 0.0 | 0.0 | 0.00 | 0.00 | 0.00 | 87 | 1031.4 |
| 20260906050011 | 22 | 76 | 0.0 | 0.0 | 0.00 | 0.00 | 0.00 | 87 | 1031.5 |
| 20260906045455 | 22 | 76 | 0.0 | 0.0 | 0.00 | 0.00 | 0.00 | 87 | 1031.5 |
| 20260906045226 | 22 | 76 | 0.0 | 0.0 | 0.00 | 0.00 | 0.00 | 87 | 1031.5 |
| 20260906044723 | 22 | 71 | 0.0 | 0.0 | 0.00 | 0.00 | 0.00 | 87 | 1031.5 |
| 20260906044222 | 23 | 71 | 0.0 | 0.0 | 0.00 | 0.00 | 0.00 | 87 | 1031.6 |
| 20260906043424 | 23 | 71 | 0.0 | 0.0 | 0.00 | 0.00 | 0.00 | 87 | 1031.6 |
| 20260906042851 | 23 | 71 | 0.0 | 0.0 | 0.00 | 0.00 | 0.00 | 87 | 1031.5 |
| 20260906042602 | 23 | 71 | 0.0 | 0.0 | 0.00 | 0.00 | 0.00 | 87 | 1031.6 |
| 20260906041752 | 23 | 68 | 0.0 | 0.0 | 0.00 | 0.00 | 0.00 | 87 | 1031.7 |
| 20260906041222 | 23 | 68 | 0.0 | 0.0 | 0.00 | 0.00 | 0.00 | 87 | 1031.6 |
| 20260906040719 | 23 | 67 | 0.0 | 0.0 | 0.00 | 0.00 | 0.00 | 87 | 1031.5 |
| 20260906040153 | 23 | 65 | 0.0 | 0.0 | 0.00 | 0.00 | 0.00 | 87 | 1031.6 |
| 20260906035630 | 23 | 65 | 0.0 | 0.0 | 0.00 | 0.00 | 0.00 | 87 | 1031.6 |
| 20260906035128 | 23 | 65 | 0.0 | 0.0 | 0.00 | 0.00 | 0.00 | 87 | 1031.6 |
| 20260906034629 | 23 | 169 | 0.0 | 0.0 | 0.00 | 0.00 | 0.00 | 86 | 1031.6 |
| 20260906034128 | 23 | 169 | 0.0 | 0.0 | 0.00 | 0.00 | 0.00 | 86 | 1031.5 |
| 20260906033629 | 23 | 169 | 0.0 | 0.0 | 0.00 | 0.00 | 0.00 | 86 | 1031.5 |
| 20260906033101 | 23 | 169 | 0.0 | 0.0 | 0.00 | 0.00 | 0.00 | 86 | 1031.5 |
| 20260906032600 | 23 | 169 | 0.0 | 0.0 | 0.00 | 0.00 | 0.00 | 85 | 1031.5 |
| 20260906032039 | 23 | 169 | 0.0 | 0.0 | 0.00 | 0.00 | 0.00 | 85 | 1031.5 |
| 20260906031517 | 23 | 169 | 0.0 | 0.0 | 0.00 | 0.00 | 0.00 | 85 | 1031.4 |
| 20260906031016 | 23 | 169 | 0.0 | 0.0 | 0.00 | 0.00 | 0.00 | 85 | 1031.4 |
| 20260906030450 | 23 | 169 | 0.0 | 0.0 | 0.00 | 0.00 | 0.00 | 85 | 1031.5 |
| 20260906025945 | 23 | 169 | 0.0 | 0.0 | 0.00 | 0.00 | 0.00 | 85 | 1031.6 |
| 20260906025441 | 23 | 169 | 0.0 | 0.0 | 0.00 | 0.00 | 0.00 | 84 | 1031.6 |
| 20260906025215 | 23 | 169 | 0.0 | 0.0 | 0.00 | 0.00 | 0.00 | 84 | 1031.6 |
| 20260906024441 | 23 | 169 | 0.0 | 0.0 | 0.00 | 0.00 | 0.00 | 84 | 1031.7 |
| 20260906023913 | 23 | 169 | 0.0 | 0.0 | 0.00 | 0.00 | 0.00 | 84 | 1031.8 |
| 20260906023642 | 23 | 169 | 0.0 | 0.0 | 0.00 | 0.00 | 0.00 | 84 | 1031.6 |
| 20260906022851 | 23 | 169 | 0.0 | 0.0 | 0.00 | 0.00 | 0.00 | 84 | 1031.5 |
| 20260906022349 | 23 | 169 | 0.0 | 0.0 | 0.00 | 0.00 | 0.00 | 84 | 1031.5 |
| 20260906022119 | 23 | 188 | 0.0 | 0.0 | 0.00 | 0.00 | 0.00 | 84 | 1031.4 |
| 20260906021352 | 23 | 188 | 0.0 | 0.0 | 0.00 | 0.00 | 0.00 | 84 | 1031.3 |
| 20260906020839 | 23 | 188 | 0.0 | 0.0 | 0.00 | 0.00 | 0.00 | 84 | 1031.1 |
| 20260906020340 | 23 | 188 | 0.0 | 0.0 | 0.00 | 0.00 | 0.00 | 84 | 1030.9 |
| 20260906015821 | 23 | 190 | 0.0 | 0.0 | 0.00 | 0.00 | 0.00 | 83 | 1030.7 |
| 20260906015550 | 24 | 190 | 0.0 | 0.0 | 0.00 | 0.00 | 0.00 | 83 | 1030.6 |
| 20260906014818 | 24 | 190 | 0.0 | 0.0 | 0.00 | 0.00 | 0.00 | 82 | 1030.5 |
| 20260906014550 | 24 | 190 | 0.0 | 0.0 | 0.00 | 0.00 | 0.00 | 82 | 1030.4 |
| 20260906013817 | 24 | 190 | 0.0 | 0.0 | 0.00 | 0.00 | 0.00 | 82 | 1030.2 |
| 20260906013252 | 24 | 188 | 0.0 | 0.0 | 0.00 | 0.00 | 0.00 | 81 | 1030.2 |
| 20260906012725 | 24 | 176 | 0.0 | 0.0 | 0.00 | 0.00 | 0.00 | 81 | 1030.1 |
| 20260906012224 | 25 | 150 | 0.0 | 0.0 | 0.00 | 0.00 | 0.00 | 80 | 1030.1 |
| 20260906011953 | 25 | 150 | 0.0 | 0.0 | 0.00 | 0.00 | 0.00 | 80 | 1029.9 |
| 20260906011457 | 25 | 172 | 0.0 | 0.0 | 0.00 | 0.00 | 0.00 | 79 | 1029.7 |
| 20260906010657 | 25 | 113 | 0.0 | 0.0 | 0.00 | 0.00 | 0.00 | 78 | 1029.6 |
| 20260906010155 | 25 | 113 | 0.0 | 0.0 | 0.00 | 0.00 | 0.00 | 78 | 1029.7 |
| 20260906005902 | 25 | 113 | 0.0 | 0.0 | 0.00 | 0.00 | 0.00 | 78 | 1029.7 |
| 20260906005109 | 25 | 131 | 0.0 | 0.0 | 0.00 | 0.00 | 0.00 | 77 | 1029.7 |
| 20260906004608 | 25 | 147 | 0.0 | 0.0 | 0.00 | 0.00 | 0.00 | 76 | 1029.6 |
| 20260906004107 | 25 | 146 | 0.0 | 0.0 | 0.00 | 0.00 | 0.00 | 76 | 1029.6 |
| 20260906003607 | 26 | 147 | 0.0 | 0.0 | 0.00 | 0.00 | 0.00 | 75 | 1029.4 |
| 20260906003057 | 26 | 188 | 0.0 | 0.0 | 0.00 | 0.00 | 0.00 | 75 | 1029.4 |
| 20260906002555 | 26 | 195 | 0.0 | 0.0 | 0.00 | 0.00 | 0.00 | 74 | 1029.4 |
| 20260906002047 | 26 | 157 | 0.0 | 0.0 | 0.00 | 0.00 | 0.00 | 74 | 1029.4 |
| 20260906001544 | 26 | 147 | 0.0 | 0.0 | 0.00 | 0.00 | 0.00 | 73 | 1029.3 |
| 20260906001017 | 26 | 202 | 0.0 | 0.0 | 0.00 | 0.00 | 0.00 | 73 | 1029.2 |
| 20260906000516 | 26 | 119 | 0.0 | 3.2 | 0.00 | 0.00 | 0.00 | 73 | 1029.2 |
| 20260905235952 | 26 | 217 | 0.0 | 3.2 | 0.00 | 0.00 | 0.00 | 73 | 1029.2 |
| 20260905235454 | 26 | 125 | 0.0 | 1.6 | 0.00 | 0.00 | 0.00 | 73 | 1029.1 |
| 20260905234949 | 26 | 117 | 0.0 | 6.4 | 0.00 | 0.00 | 0.00 | 72 | 1029.0 |
| 20260905234448 | 26 | 99 | 0.0 | 6.4 | 0.00 | 0.00 | 0.00 | 71 | 1029.1 |
| 20260905234204 | 27 | 115 | 0.0 | 4.8 | 0.00 | 0.00 | 0.00 | 70 | 1029.1 |
| 20260905233430 | 27 | 186 | 0.0 | 4.8 | 0.00 | 0.00 | 0.00 | 70 | 1029.2 |
| 20260905233142 | 27 | 117 | 0.0 | 4.8 | 0.00 | 0.00 | 0.00 | 70 | 1029.1 |
| 20260905232351 | 27 | 146 | 0.0 | 1.6 | 0.00 | 0.00 | 0.00 | 70 | 1029.1 |
| 20260905231851 | 27 | 98 | 0.0 | 1.6 | 0.00 | 0.00 | 0.00 | 69 | 1029.0 |
| 20260905231622 | 27 | 121 | 0.0 | 1.6 | 0.00 | 0.00 | 0.00 | 68 | 1028.9 |
| 20260905230840 | 27 | 114 | 0.0 | 8.0 | 0.00 | 0.00 | 0.00 | 68 | 1028.7 |
| 20260905230322 | 27 | 82 | 0.0 | 8.0 | 0.00 | 0.00 | 0.00 | 67 | 1028.7 |
| 20260905225822 | 28 | 94 | 0.0 | 9.7 | 0.00 | 0.00 | 0.00 | 67 | 1028.8 |
| 20260905225258 | 28 | 132 | 0.0 | 9.7 | 0.00 | 0.00 | 0.00 | 66 | 1028.7 |
| 20260905225018 | 28 | 104 | 0.0 | 9.7 | 0.00 | 0.00 | 0.00 | 66 | 1028.5 |
| 20260905224246 | 28 | 111 | 0.0 | 9.7 | 0.00 | 0.00 | 0.00 | 65 | 1028.4 |
| 20260905223722 | 28 | 94 | 0.0 | 4.8 | 0.00 | 0.00 | 0.00 | 66 | 1028.4 |
| 20260905223427 | 28 | 90 | 0.0 | 3.2 | 0.00 | 0.00 | 0.00 | 65 | 1028.3 |
| 20260905222648 | 28 | 99 | 0.0 | 3.2 | 0.00 | 0.00 | 0.00 | 67 | 1028.3 |
| 20260905222144 | 28 | 107 | 0.0 | 3.2 | 0.00 | 0.00 | 0.00 | 66 | 1028.2 |
| 20260905221647 | 28 | 74 | 0.0 | 1.6 | 0.00 | 0.00 | 0.00 | 66 | 1028.3 |
| 20260905221624 | 28 | 109 | 0.0 | 1.6 | 0.00 | 0.00 | 0.00 | 66 | 1028.4 |
| 20260905220607 | 28 | 107 | 0.0 | 1.6 | 0.00 | 0.00 | 0.00 | 67 | 1028.4 |
| 20260905220557 | 27 | 71 | 0.0 | 1.6 | 0.00 | 0.00 | 0.00 | 68 | 1028.5 |
| 20260905215544 | 27 | 69 | 0.0 | 0.0 | 0.00 | 0.00 | 0.00 | 68 | 1028.6 |
| 20260905215315 | 27 | 53 | 0.0 | 0.0 | 0.00 | 0.00 | 0.00 | 69 | 1028.7 |
| 20260905214544 | 27 | 95 | 0.0 | 3.2 | 0.00 | 0.00 | 0.00 | 69 | 1028.7 |
| 20260905214040 | 27 | 99 | 0.0 | 3.2 | 0.00 | 0.00 | 0.00 | 68 | 1028.8 |
| 20260905213539 | 27 | 93 | 0.0 | 1.6 | 0.00 | 0.00 | 0.00 | 68 | 1028.9 |
| 20260905213039 | 28 | 47 | 0.0 | 0.0 | 0.00 | 0.00 | 0.00 | 69 | 1028.9 |
| 20260905212540 | 28 | 47 | 0.0 | 0.0 | 0.00 | 0.00 | 0.00 | 68 | 1028.9 |
| 20260905212035 | 28 | 59 | 0.0 | 1.6 | 0.00 | 0.00 | 0.00 | 68 | 1028.9 |
| 20260905211534 | 28 | 68 | 0.0 | 1.6 | 0.00 | 0.00 | 0.00 | 67 | 1028.9 |
| 20260905211035 | 28 | 30 | 0.0 | 9.7 | 0.00 | 0.00 | 0.00 | 68 | 1028.9 |
| 20260905210528 | 28 | 114 | 0.0 | 9.7 | 0.00 | 0.00 | 0.00 | 66 | 1028.9 |
| 20260905210004 | 28 | 92 | 0.0 | 11.3 | 0.00 | 0.00 | 0.00 | 65 | 1028.9 |
| 20260905205706 | 29 | 99 | 0.0 | 11.3 | 0.00 | 0.00 | 0.00 | 67 | 1028.8 |
| 20260905205142 | 29 | 30 | 0.0 | 12.9 | 0.00 | 0.00 | 0.00 | 67 | 1028.8 |
| 20260905204349 | 28 | 32 | 0.0 | 4.8 | 0.00 | 0.00 | 0.00 | 69 | 1028.8 |
| 20260905204119 | 28 | 75 | 0.0 | 16.1 | 0.00 | 0.00 | 0.00 | 70 | 1028.8 |
| 20260905203338 | 28 | 43 | 0.0 | 16.1 | 0.00 | 0.00 | 0.00 | 70 | 1029.0 |
| 20260905202815 | 28 | 59 | 0.0 | 9.7 | 0.00 | 0.00 | 0.00 | 70 | 1029.1 |
| 20260905202248 | 28 | 5 | 0.0 | 9.7 | 0.00 | 0.00 | 0.00 | 70 | 1029.1 |
| 20260905202014 | 28 | 65 | 0.0 | 4.8 | 0.00 | 0.00 | 0.00 | 71 | 1029.3 |
| 20260905201239 | 28 | 68 | 0.0 | 8.0 | 0.00 | 0.00 | 0.00 | 71 | 1029.4 |
| 20260905200727 | 28 | 79 | 0.0 | 8.0 | 0.00 | 0.00 | 0.00 | 70 | 1029.4 |
| 20260905200224 | 28 | 63 | 0.0 | 6.4 | 0.00 | 0.00 | 0.00 | 70 | 1029.8 |
| 20260905195723 | 28 | 98 | 0.0 | 6.4 | 0.00 | 0.00 | 0.00 | 71 | 1030.0 |
| 20260905195155 | 28 | 80 | 0.0 | 4.8 | 0.00 | 0.00 | 0.00 | 71 | 1030.0 |
| 20260905194924 | 28 | 102 | 0.0 | 1.6 | 0.00 | 0.00 | 0.00 | 71 | 1030.1 |
| 20260905194128 | 28 | 108 | 0.0 | 1.6 | 0.00 | 0.00 | 0.00 | 72 | 1030.1 |
| 20260905193605 | 28 | 86 | 0.0 | 0.0 | 0.00 | 0.00 | 0.00 | 73 | 1030.1 |
| 20260905193109 | 27 | 24 | 0.0 | 0.0 | 0.00 | 0.00 | 0.00 | 73 | 1030.2 |
| 20260905192543 | 27 | 70 | 0.0 | 4.8 | 0.00 | 0.00 | 0.00 | 73 | 1030.3 |
| 20260905192014 | 27 | 29 | 0.0 | 0.0 | 0.00 | 0.00 | 0.00 | 72 | 1030.4 |
| 20260905191745 | 27 | 29 | 0.0 | 0.0 | 0.00 | 0.00 | 0.00 | 72 | 1030.6 |
| 20260905191007 | 27 | 29 | 0.0 | 0.0 | 0.00 | 0.00 | 0.00 | 73 | 1030.6 |
| 20260905190504 | 27 | 28 | 0.0 | 0.0 | 0.00 | 0.00 | 0.00 | 73 | 1030.7 |
| 20260905185955 | 27 | 28 | 0.0 | 0.0 | 0.00 | 0.00 | 0.00 | 72 | 1030.8 |
| 20260905185426 | 27 | 28 | 0.0 | 0.0 | 0.00 | 0.00 | 0.00 | 71 | 1030.9 |
| 20260905184923 | 28 | 165 | 0.0 | 0.0 | 0.00 | 0.00 | 0.00 | 71 | 1030.8 |
| 20260905184423 | 28 | 138 | 0.0 | 0.0 | 0.00 | 0.00 | 0.00 | 71 | 1030.9 |
| 20260905183854 | 28 | 136 | 0.0 | 0.0 | 0.00 | 0.00 | 0.00 | 71 | 1030.7 |
| 20260905183353 | 28 | 136 | 0.0 | 0.0 | 0.00 | 0.00 | 0.00 | 71 | 1030.9 |
| 20260905182827 | 27 | 211 | 0.0 | 0.0 | 0.00 | 0.00 | 0.00 | 73 | 1030.8 |
| 20260905182322 | 27 | 211 | 0.0 | 0.0 | 0.00 | 0.00 | 0.00 | 73 | 1030.9 |
| 20260905182051 | 27 | 169 | 0.0 | 0.0 | 0.00 | 0.00 | 0.00 | 74 | 1031.0 |
| 20260905181522 | 26 | 187 | 0.0 | 0.0 | 0.00 | 0.00 | 0.00 | 77 | 1030.9 |
| 20260905181019 | 26 | 117 | 0.0 | 1.6 | 0.00 | 0.00 | 0.00 | 78 | 1031.0 |
| 20260905180518 | 26 | 181 | 0.0 | 0.0 | 0.00 | 0.00 | 0.00 | 78 | 1031.1 |
| 20260905175739 | 26 | 127 | 0.0 | 0.0 | 0.00 | 0.00 | 0.00 | 80 | 1031.2 |
| 20260905175213 | 25 | 191 | 0.0 | 0.0 | 0.00 | 0.00 | 0.00 | 80 | 1031.2 |
| 20260905174647 | 25 | 185 | 0.0 | 0.0 | 0.00 | 0.00 | 0.00 | 82 | 1031.2 |
| 20260905174353 | 25 | 124 | 0.0 | 0.0 | 0.00 | 0.00 | 0.00 | 83 | 1031.2 |
| 20260905173554 | 24 | 173 | 0.0 | 0.0 | 0.00 | 0.00 | 0.00 | 84 | 1031.5 |
| 20260905173038 | 24 | 205 | 0.0 | 0.0 | 0.00 | 0.00 | 0.00 | 85 | 1031.6 |
| 20260905172815 | 23 | 178 | 0.0 | 4.8 | 0.00 | 0.00 | 0.00 | 86 | 1031.6 |
| 20260905172009 | 23 | 101 | 0.0 | 4.8 | 0.00 | 0.00 | 0.00 | 87 | 1031.7 |
| 20260905171718 | 23 | 90 | 0.0 | 4.8 | 0.00 | 0.00 | 0.00 | 87 | 1031.7 |
| 20260905170918 | 23 | 80 | 0.0 | 4.8 | 0.00 | 0.00 | 0.00 | 87 | 1031.8 |
| 20260905170416 | 23 | 103 | 0.0 | 0.0 | 0.00 | 0.00 | 0.00 | 88 | 1031.8 |
| 20260905165900 | 23 | 86 | 0.0 | 0.0 | 0.00 | 0.00 | 0.00 | 89 | 1031.8 |
| 20260905165359 | 23 | 113 | 0.0 | 0.0 | 0.00 | 0.00 | 0.00 | 90 | 1031.8 |
| 20260905164837 | 22 | 113 | 0.0 | 1.6 | 0.00 | 0.00 | 0.00 | 90 | 1031.7 |
| 20260905164309 | 22 | 109 | 0.0 | 3.2 | 0.00 | 0.00 | 0.00 | 91 | 1031.7 |
| 20260905163807 | 22 | 88 | 0.0 | 3.2 | 0.00 | 0.00 | 0.00 | 91 | 1032.0 |
| 20260905163246 | 22 | 69 | 0.0 | 0.0 | 0.00 | 0.00 | 0.00 | 92 | 1031.8 |